Time,TemperatureF,DewpointF,PressureIn,WindDirection,WindDirectionDegrees,WindSpeedMPH,WindSpeedGustMPH,Humidity,HourlyPrecipIn,Conditions,Clouds,dailyrainin,SoftwareType,DateUTC
2013-03-17 00:00:00,27.6,15.9,30.33,North,8,0.0,0.0,61,0.00,,BKN220,0.00,VWS V14.00,2013-03-17 04:00:00,
2013-03-17 00:01:00,31.2,28.9,29.92,West,259,0.0,0.0,91,0.00,,CLR,0.00,VWS V14.00,2013-03-17 04:01:00,
2013-03-17 00:02:00,31.2,28.9,29.92,West,259,0.0,0.0,91,0.00,,CLR,0.00,VWS V14.00,2013-03-17 04:02:00,
2013-03-17 00:03:00,31.2,28.9,29.92,West,259,0.0,0.0,91,0.00,,CLR,0.00,VWS V14.00,2013-03-17 04:03:00,
2013-03-17 00:04:00,31.1,28.8,29.92,West,259,0.0,0.0,91,0.00,,CLR,0.00,VWS V14.00,2013-03-17 04:04:00,
2013-03-17 00:07:00,31.1,28.8,29.92,West,259,0.0,0.0,91,0.00,,CLR,0.00,VWS V14.00,2013-03-17 04:07:00,
2013-03-17 00:08:00,31.1,28.8,29.92,West,259,0.0,0.0,91,0.00,,CLR,0.00,VWS V14.00,2013-03-17 04:08:00,
2013-03-17 00:09:00,31.0,28.7,29.92,West,259,0.0,0.0,91,0.00,,CLR,0.00,VWS V14.00,2013-03-17 04:09:00,
2013-03-17 00:10:00,31.0,28.7,29.92,West,259,0.0,0.0,91,0.00,,CLR,0.00,VWS V14.00,2013-03-17 04:10:00,
2013-03-17 00:11:00,31.0,28.7,29.92,West,259,0.0,0.0,91,0.00,,CLR,0.00,VWS V14.00,2013-03-17 04:11:00,
2013-03-17 00:12:00,30.9,28.6,29.92,West,259,0.0,0.0,91,0.00,,CLR,0.00,VWS V14.00,2013-03-17 04:12:00,
2013-03-17 00:13:00,31.0,28.7,29.92,West,259,0.0,0.0,91,0.00,,CLR,0.00,VWS V14.00,2013-03-17 04:13:00,
2013-03-17 00:14:00,31.8,29.6,29.92,West,259,0.0,0.0,91,0.00,,CLR,0.00,VWS V14.00,2013-03-17 04:14:00,
2013-03-17 00:16:00,30.9,28.6,29.92,West,259,0.0,0.0,91,0.00,,CLR,0.00,VWS V14.00,2013-03-17 04:16:00,
2013-03-17 00:17:00,30.8,28.5,29.92,West,259,0.0,0.0,91,0.00,,CLR,0.00,VWS V14.00,2013-03-17 04:17:00,
2013-03-17 00:18:00,30.8,28.5,29.92,West,259,0.0,0.0,91,0.00,,CLR,0.00,VWS V14.00,2013-03-17 04:18:00,
2013-03-17 00:19:00,31.8,29.6,29.92,West,259,0.0,0.0,92,0.00,,CLR,0.00,VWS V14.00,2013-03-17 04:19:00,
2013-03-17 00:20:00,30.8,28.5,29.92,West,259,0.0,0.0,91,0.00,,CLR,0.00,VWS V14.00,2013-03-17 04:20:00,
2013-03-17 00:24:00,31.7,29.6,29.91,West,259,0.0,0.0,92,0.00,,CLR,0.00,VWS V14.00,2013-03-17 04:24:00,
2013-03-17 00:29:00,31.8,29.6,29.92,West,259,0.0,0.0,92,0.00,,CLR,0.00,VWS V14.00,2013-03-17 04:29:00,
2013-03-17 00:34:00,31.7,29.5,29.92,West,259,0.0,0.0,92,0.00,,CLR,0.00,VWS V14.00,2013-03-17 04:34:00,
2013-03-17 00:39:00,31.7,29.5,29.92,West,259,0.0,0.0,92,0.00,,CLR,0.00,VWS V14.00,2013-03-17 04:39:00,
2013-03-17 00:44:00,31.6,29.4,29.92,West,259,0.0,0.0,92,0.00,,CLR,0.00,VWS V14.00,2013-03-17 04:44:00,
2013-03-17 00:49:00,31.5,29.2,29.92,West,259,0.0,0.0,91,0.00,,CLR,0.00,VWS V14.00,2013-03-17 04:49:00,
2013-03-17 00:54:00,31.4,29.1,29.92,West,259,0.0,0.0,91,0.00,,CLR,0.00,VWS V14.00,2013-03-17 04:54:00,
2013-03-17 00:59:00,31.3,29.0,29.92,West,259,0.0,0.0,91,0.00,,CLR,0.00,VWS V14.00,2013-03-17 04:59:00,
2013-03-17 01:04:00,31.2,28.9,29.92,West,259,0.0,0.0,91,0.00,,CLR,0.00,VWS V14.00,2013-03-17 05:04:00,
2013-03-17 01:09:00,31.1,28.8,29.92,West,259,0.0,0.0,91,0.00,,CLR,0.00,VWS V14.00,2013-03-17 05:09:00,
2013-03-17 01:15:00,30.9,28.6,29.92,West,259,0.0,0.0,91,0.00,,CLR,0.00,VWS V14.00,2013-03-17 05:15:00,
2013-03-17 01:20:00,30.8,28.5,29.92,West,259,0.0,0.0,91,0.00,,CLR,0.00,VWS V14.00,2013-03-17 05:20:00,
2013-03-17 01:25:00,30.6,28.3,29.92,West,259,0.0,0.0,91,0.00,,CLR,0.00,VWS V14.00,2013-03-17 05:25:00,
2013-03-17 01:30:00,30.4,28.1,29.92,West,259,0.0,0.0,91,0.00,,CLR,0.00,VWS V14.00,2013-03-17 05:30:00,
2013-03-17 01:35:00,30.2,28.0,29.92,West,259,0.0,0.0,91,0.00,,CLR,0.00,VWS V14.00,2013-03-17 05:35:00,
2013-03-17 01:40:00,30.1,27.9,29.92,West,259,0.0,0.0,91,0.00,,CLR,0.00,VWS V14.00,2013-03-17 05:40:00,
2013-03-17 01:45:00,30.0,27.8,29.92,West,259,0.0,0.0,92,0.00,,CLR,0.00,VWS V14.00,2013-03-17 05:45:00,
2013-03-17 01:50:00,29.9,27.8,29.91,West,259,0.0,0.0,92,0.00,,CLR,0.00,VWS V14.00,2013-03-17 05:50:00,
2013-03-17 01:55:00,29.8,27.7,29.92,West,259,0.0,0.0,92,0.00,,CLR,0.00,VWS V14.00,2013-03-17 05:55:00,
2013-03-17 02:00:00,29.7,27.6,29.92,West,259,0.0,0.0,92,0.00,,CLR,0.00,VWS V14.00,2013-03-17 06:00:00,
2013-03-17 02:05:00,29.5,27.4,29.92,West,259,0.0,0.0,92,0.00,,CLR,0.00,VWS V14.00,2013-03-17 06:05:00,
2013-03-17 02:10:00,29.2,27.1,29.92,West,259,0.0,0.0,92,0.00,,CLR,0.00,VWS V14.00,2013-03-17 06:10:00,
2013-03-17 02:15:00,29.0,27.0,29.92,West,259,0.0,0.0,92,0.00,,CLR,0.00,VWS V14.00,2013-03-17 06:15:00,
2013-03-17 02:20:00,28.9,27.0,29.92,West,259,0.0,0.0,92,0.00,,CLR,0.00,VWS V14.00,2013-03-17 06:20:00,
2013-03-17 02:26:00,28.7,26.8,29.92,West,259,0.0,0.0,92,0.00,,CLR,0.00,VWS V14.00,2013-03-17 06:26:00,
2013-03-17 02:31:00,28.6,26.8,29.92,West,259,0.0,0.0,93,0.00,,CLR,0.00,VWS V14.00,2013-03-17 06:31:00,
2013-03-17 02:36:00,28.6,26.8,29.93,West,259,0.0,0.0,93,0.00,,CLR,0.00,VWS V14.00,2013-03-17 06:36:00,
2013-03-17 02:41:00,28.5,26.8,29.93,West,259,0.0,0.0,93,0.00,,CLR,0.00,VWS V14.00,2013-03-17 06:41:00,
2013-03-17 02:46:00,28.4,26.7,29.93,West,259,0.0,0.0,93,0.00,,CLR,0.00,VWS V14.00,2013-03-17 06:46:00,
2013-03-17 02:51:00,28.4,26.7,29.93,West,259,0.0,0.0,93,0.00,,CLR,0.00,VWS V14.00,2013-03-17 06:51:00,
2013-03-17 02:56:00,28.3,26.6,29.93,West,259,0.0,0.0,93,0.00,,CLR,0.00,VWS V14.00,2013-03-17 06:56:00,
2013-03-17 03:02:00,28.3,26.6,29.94,West,259,0.0,0.0,93,0.00,,CLR,0.00,VWS V14.00,2013-03-17 07:02:00,
2013-03-17 03:07:00,28.3,26.7,29.94,West,259,0.0,0.0,94,0.00,,CLR,0.00,VWS V14.00,2013-03-17 07:07:00,
2013-03-17 03:12:00,28.3,26.7,29.94,West,259,0.0,0.0,94,0.00,,CLR,0.00,VWS V14.00,2013-03-17 07:12:00,
2013-03-17 03:17:00,28.3,26.7,29.94,West,259,0.0,0.0,94,0.00,,CLR,0.00,VWS V14.00,2013-03-17 07:17:00,
2013-03-17 03:22:00,28.3,26.7,29.94,West,259,0.0,0.0,94,0.00,,CLR,0.00,VWS V14.00,2013-03-17 07:22:00,
2013-03-17 03:27:00,28.2,26.6,29.93,West,259,0.0,0.0,94,0.00,,CLR,0.00,VWS V14.00,2013-03-17 07:27:00,
2013-03-17 03:32:00,28.0,26.4,29.94,West,259,0.0,0.0,94,0.00,,CLR,0.00,VWS V14.00,2013-03-17 07:32:00,
2013-03-17 03:37:00,27.9,26.4,29.94,West,259,0.0,0.0,94,0.00,,CLR,0.00,VWS V14.00,2013-03-17 07:37:00,
2013-03-17 03:42:00,27.9,26.4,29.94,West,259,0.0,0.0,94,0.00,,CLR,0.00,VWS V14.00,2013-03-17 07:42:00,
2013-03-17 03:47:00,27.9,26.4,29.94,West,259,0.0,0.0,94,0.00,,CLR,0.00,VWS V14.00,2013-03-17 07:47:00,
2013-03-17 03:52:00,27.9,26.4,29.94,West,259,0.0,0.0,94,0.00,,CLR,0.00,VWS V14.00,2013-03-17 07:52:00,
2013-03-17 03:57:00,27.9,26.4,29.94,West,259,0.0,0.0,94,0.00,,CLR,0.00,VWS V14.00,2013-03-17 07:57:00,
2013-03-17 04:02:00,27.8,26.2,29.95,West,259,0.0,0.0,94,0.00,,CLR,0.00,VWS V14.00,2013-03-17 08:02:00,
2013-03-17 04:07:00,27.8,26.2,29.95,West,259,0.0,0.0,94,0.00,,CLR,0.00,VWS V14.00,2013-03-17 08:07:00,
2013-03-17 04:13:00,27.7,26.2,29.95,West,259,0.0,0.0,94,0.00,,CLR,0.00,VWS V14.00,2013-03-17 08:13:00,
2013-03-17 04:18:00,27.7,26.2,29.96,West,259,0.0,0.0,94,0.00,,CLR,0.00,VWS V14.00,2013-03-17 08:18:00,
2013-03-17 04:23:00,27.8,26.3,29.96,West,259,0.0,0.0,94,0.00,,CLR,0.00,VWS V14.00,2013-03-17 08:23:00,
2013-03-17 04:28:00,28.0,26.5,29.95,West,259,0.0,0.0,94,0.00,,CLR,0.00,VWS V14.00,2013-03-17 08:28:00,
2013-03-17 04:33:00,28.1,26.6,29.96,West,259,0.0,0.0,94,0.00,,CLR,0.00,VWS V14.00,2013-03-17 08:33:00,
2013-03-17 04:38:00,28.2,26.7,29.95,West,259,0.0,0.0,94,0.00,,CLR,0.00,VWS V14.00,2013-03-17 08:38:00,
2013-03-17 04:43:00,28.3,26.8,29.96,West,259,0.0,0.0,94,0.00,,CLR,0.00,VWS V14.00,2013-03-17 08:43:00,
2013-03-17 04:48:00,28.4,26.9,29.96,West,259,0.0,0.0,94,0.00,,CLR,0.00,VWS V14.00,2013-03-17 08:48:00,
2013-03-17 04:53:00,28.4,26.9,29.96,West,259,0.0,0.0,94,0.00,,CLR,0.00,VWS V14.00,2013-03-17 08:53:00,
2013-03-17 04:58:00,28.4,26.9,29.97,West,259,0.0,0.0,94,0.00,,CLR,0.00,VWS V14.00,2013-03-17 08:58:00,
2013-03-17 05:03:00,28.5,26.9,29.97,West,259,0.0,0.0,94,0.00,,CLR,0.00,VWS V14.00,2013-03-17 09:03:00,
2013-03-17 05:08:00,28.4,26.8,29.97,West,259,0.0,0.0,94,0.00,,CLR,0.00,VWS V14.00,2013-03-17 09:08:00,
2013-03-17 05:13:00,28.3,26.6,29.98,West,259,0.0,0.0,93,0.00,,CLR,0.00,VWS V14.00,2013-03-17 09:13:00,
2013-03-17 05:19:00,28.2,26.5,29.98,West,259,0.0,0.0,93,0.00,,CLR,0.00,VWS V14.00,2013-03-17 09:19:00,
2013-03-17 05:24:00,28.1,26.3,29.98,West,259,0.0,0.0,93,0.00,,CLR,0.00,VWS V14.00,2013-03-17 09:24:00,
2013-03-17 05:29:00,28.0,26.2,29.99,West,259,0.0,0.0,93,0.00,,CLR,0.00,VWS V14.00,2013-03-17 09:29:00,
2013-03-17 05:34:00,28.0,26.2,29.99,West,259,0.0,0.0,93,0.00,,CLR,0.00,VWS V14.00,2013-03-17 09:34:00,
2013-03-17 05:39:00,27.9,26.1,30.00,West,259,0.0,0.0,93,0.00,,CLR,0.00,VWS V14.00,2013-03-17 09:39:00,
2013-03-17 05:44:00,28.0,26.1,30.00,West,259,0.0,0.0,93,0.00,,CLR,0.00,VWS V14.00,2013-03-17 09:44:00,
2013-03-17 05:49:00,27.9,25.9,30.00,West,259,0.0,0.0,92,0.00,,CLR,0.00,VWS V14.00,2013-03-17 09:49:00,
2013-03-17 05:54:00,27.9,25.8,30.00,West,259,0.0,0.0,92,0.00,,CLR,0.00,VWS V14.00,2013-03-17 09:54:00,
2013-03-17 05:59:00,27.9,25.5,30.00,West,259,0.0,0.0,91,0.00,,CLR,0.00,VWS V14.00,2013-03-17 09:59:00,
2013-03-17 06:04:00,28.0,25.6,30.00,West,259,0.0,0.0,90,0.00,,CLR,0.00,VWS V14.00,2013-03-17 10:04:00,
2013-03-17 06:09:00,28.1,25.4,30.00,West,259,0.0,0.0,90,0.00,,CLR,0.00,VWS V14.00,2013-03-17 10:09:00,
2013-03-17 06:14:00,28.1,25.5,30.00,West,259,0.0,0.0,90,0.00,,CLR,0.00,VWS V14.00,2013-03-17 10:14:00,
2013-03-17 06:19:00,28.0,25.4,30.01,West,259,0.0,0.0,90,0.00,,CLR,0.00,VWS V14.00,2013-03-17 10:19:00,
2013-03-17 06:24:00,28.0,25.5,30.01,West,259,0.0,0.0,90,0.00,,CLR,0.00,VWS V14.00,2013-03-17 10:24:00,
2013-03-17 06:29:00,27.9,25.4,30.01,West,259,0.0,0.0,90,0.00,,CLR,0.00,VWS V14.00,2013-03-17 10:29:00,
2013-03-17 06:34:00,27.9,25.0,30.02,West,259,0.0,0.0,89,0.00,,CLR,0.00,VWS V14.00,2013-03-17 10:34:00,
2013-03-17 06:39:00,27.9,24.8,30.02,West,259,0.0,0.0,88,0.00,,CLR,0.00,VWS V14.00,2013-03-17 10:39:00,
2013-03-17 06:44:00,28.1,25.0,30.02,West,259,0.0,0.0,88,0.00,,CLR,0.00,VWS V14.00,2013-03-17 10:44:00,
2013-03-17 06:49:00,28.1,25.0,30.02,West,259,0.0,0.0,88,0.00,,CLR,0.00,VWS V14.00,2013-03-17 10:49:00,
2013-03-17 06:55:00,28.1,25.1,30.02,West,259,0.0,0.0,88,0.00,,CLR,0.00,VWS V14.00,2013-03-17 10:55:00,
2013-03-17 07:00:00,28.0,24.9,30.03,West,259,0.0,0.0,88,0.00,,CLR,0.00,VWS V14.00,2013-03-17 11:00:00,
2013-03-17 07:05:00,27.8,23.5,30.03,West,259,0.0,0.0,84,0.00,,CLR,0.00,VWS V14.00,2013-03-17 11:05:00,
2013-03-17 07:10:00,27.8,22.9,30.04,West,259,0.0,0.0,82,0.00,,CLR,0.00,VWS V14.00,2013-03-17 11:10:00,
2013-03-17 07:15:00,27.9,23.2,30.05,West,259,0.0,0.0,82,0.00,,CLR,0.00,VWS V14.00,2013-03-17 11:15:00,
2013-03-17 07:20:00,27.8,22.5,30.05,West,259,0.0,0.0,80,0.00,,CLR,0.00,VWS V14.00,2013-03-17 11:20:00,
2013-03-17 07:25:00,27.7,22.4,30.06,West,259,0.0,0.0,80,0.00,,CLR,0.00,VWS V14.00,2013-03-17 11:25:00,
2013-03-17 07:30:00,27.6,22.0,30.07,West,259,0.0,0.0,79,0.00,,CLR,0.00,VWS V14.00,2013-03-17 11:30:00,
2013-03-17 07:35:00,27.7,22.4,30.07,West,259,0.0,0.0,80,0.00,,CLR,0.00,VWS V14.00,2013-03-17 11:35:00,
2013-03-17 07:40:00,27.4,21.8,30.07,West,259,0.0,0.0,79,0.00,,CLR,0.00,VWS V14.00,2013-03-17 11:40:00,
2013-03-17 07:45:00,27.1,20.4,30.07,West,259,0.0,0.0,75,0.00,,CLR,0.00,VWS V14.00,2013-03-17 11:45:00,
2013-03-17 07:50:00,27.0,20.5,30.08,West,259,0.0,0.0,76,0.00,,CLR,0.00,VWS V14.00,2013-03-17 11:50:00,
2013-03-17 07:55:00,26.8,19.8,30.08,West,259,0.0,0.0,74,0.00,,CLR,0.00,VWS V14.00,2013-03-17 11:55:00,
2013-03-17 08:00:00,26.7,20.4,30.08,West,259,0.0,0.0,77,0.00,,CLR,0.00,VWS V14.00,2013-03-17 12:00:00,
2013-03-17 08:05:00,26.6,20.1,30.08,West,259,0.0,0.0,76,0.00,,SCT250,0.00,VWS V14.00,2013-03-17 12:05:00,
2013-03-17 08:10:00,26.5,20.1,30.08,West,259,0.0,0.0,76,0.00,,SCT250,0.00,VWS V14.00,2013-03-17 12:10:00,
2013-03-17 08:16:00,26.5,19.8,30.09,West,259,0.0,0.0,75,0.00,,SCT250,0.00,VWS V14.00,2013-03-17 12:16:00,
2013-03-17 08:21:00,26.5,20.1,30.08,West,259,0.0,0.0,76,0.00,,SCT250,0.00,VWS V14.00,2013-03-17 12:21:00,
2013-03-17 08:26:00,26.5,19.6,30.08,West,259,0.0,0.0,75,0.00,,SCT250,0.00,VWS V14.00,2013-03-17 12:26:00,
2013-03-17 08:31:00,26.5,19.0,30.08,West,259,0.0,0.0,73,0.00,,SCT250,0.00,VWS V14.00,2013-03-17 12:31:00,
2013-03-17 08:36:00,26.7,19.6,30.08,West,259,0.0,0.0,74,0.00,,SCT250,0.00,VWS V14.00,2013-03-17 12:36:00,
2013-03-17 08:41:00,26.7,18.4,30.08,West,259,0.0,0.0,71,0.00,,SCT250,0.00,VWS V14.00,2013-03-17 12:41:00,
2013-03-17 08:46:00,26.9,19.7,30.08,West,259,0.0,0.0,74,0.00,,SCT250,0.00,VWS V14.00,2013-03-17 12:46:00,
2013-03-17 08:51:00,27.1,19.5,30.09,West,259,0.0,0.0,73,0.00,,SCT250,0.00,VWS V14.00,2013-03-17 12:51:00,
2013-03-17 08:56:00,27.2,19.5,30.09,West,259,0.0,0.0,72,0.00,,SCT250,0.00,VWS V14.00,2013-03-17 12:56:00,
2013-03-17 09:02:00,27.4,18.7,30.10,West,259,0.0,0.0,69,0.00,,SCT250,0.00,VWS V14.00,2013-03-17 13:02:00,
2013-03-17 09:07:00,27.5,19.1,30.10,West,259,0.0,0.0,70,0.00,,SCT250,0.00,VWS V14.00,2013-03-17 13:07:00,
2013-03-17 09:12:00,27.6,19.1,30.11,West,259,0.0,0.0,70,0.00,,SCT250,0.00,VWS V14.00,2013-03-17 13:12:00,
2013-03-17 09:17:00,27.7,19.0,30.10,West,259,0.0,0.0,70,0.00,,SCT250,0.00,VWS V14.00,2013-03-17 13:17:00,
2013-03-17 09:22:00,27.8,19.0,30.11,West,259,0.0,0.0,69,0.00,,SCT250,0.00,VWS V14.00,2013-03-17 13:22:00,
2013-03-17 09:27:00,28.1,19.5,30.11,West,259,0.0,0.0,70,0.00,,SCT250,0.00,VWS V14.00,2013-03-17 13:27:00,
2013-03-17 09:32:00,28.3,19.5,30.12,West,259,0.0,0.0,69,0.00,,SCT250,0.00,VWS V14.00,2013-03-17 13:32:00,
2013-03-17 09:37:00,28.4,19.0,30.12,West,259,0.0,0.0,67,0.00,,SCT250,0.00,VWS V14.00,2013-03-17 13:37:00,
2013-03-17 09:42:00,28.6,19.5,30.12,West,259,0.0,0.0,68,0.00,,SCT250,0.00,VWS V14.00,2013-03-17 13:42:00,
2013-03-17 09:47:00,28.7,19.4,30.12,West,259,0.0,0.0,68,0.00,,SCT250,0.00,VWS V14.00,2013-03-17 13:47:00,
2013-03-17 09:53:00,28.9,19.7,30.12,West,259,0.0,0.0,68,0.00,,SCT250,0.00,VWS V14.00,2013-03-17 13:53:00,
2013-03-17 09:58:00,29.0,19.4,30.12,West,259,0.0,0.0,67,0.00,,SCT250,0.00,VWS V14.00,2013-03-17 13:58:00,
2013-03-17 10:03:00,29.1,19.5,30.12,West,259,0.0,0.0,67,0.00,,SCT250,0.00,VWS V14.00,2013-03-17 14:03:00,
2013-03-17 10:08:00,29.2,19.2,30.11,West,259,0.0,0.0,66,0.00,,BKN250,0.00,VWS V14.00,2013-03-17 14:08:00,
2013-03-17 10:13:00,29.5,20.2,30.11,West,259,0.0,0.0,68,0.00,,BKN250,0.00,VWS V14.00,2013-03-17 14:13:00,
2013-03-17 10:18:00,29.8,20.1,30.11,West,259,0.0,0.0,67,0.00,,BKN250,0.00,VWS V14.00,2013-03-17 14:18:00,
2013-03-17 10:23:00,29.8,19.8,30.12,West,259,0.0,0.0,66,0.00,,BKN250,0.00,VWS V14.00,2013-03-17 14:23:00,
2013-03-17 10:28:00,30.2,21.0,30.12,NNE,15,0.0,9.5,68,0.00,,BKN250,0.00,VWS V14.00,2013-03-17 14:28:00,
2013-03-17 10:33:00,30.3,19.8,30.12,NNW,329,0.0,6.0,65,0.00,,BKN250,0.00,VWS V14.00,2013-03-17 14:33:00,
2013-03-17 10:38:00,30.6,20.3,30.13,NNW,329,0.0,6.0,65,0.00,,BKN250,0.00,VWS V14.00,2013-03-17 14:38:00,
2013-03-17 10:43:00,30.8,20.0,30.12,NNW,329,0.0,0.0,64,0.00,,BKN250,0.00,VWS V14.00,2013-03-17 14:43:00,
2013-03-17 10:48:00,30.8,20.3,30.13,North,354,0.0,4.3,64,0.00,,BKN250,0.00,VWS V14.00,2013-03-17 14:48:00,
2013-03-17 10:53:00,31.0,20.1,30.13,NNW,340,0.0,4.8,64,0.00,,BKN250,0.00,VWS V14.00,2013-03-17 14:53:00,
2013-03-17 10:58:00,31.2,21.7,30.13,WNW,291,3.4,5.6,67,0.00,,BKN250,0.00,VWS V14.00,2013-03-17 14:58:00,
2013-03-17 11:03:00,31.1,20.7,30.13,NNW,339,0.0,6.5,65,0.00,,BKN250,0.00,VWS V14.00,2013-03-17 15:03:00,
2013-03-17 11:08:00,30.8,20.3,30.13,West,267,0.0,9.1,65,0.00,,BKN250,0.00,VWS V14.00,2013-03-17 15:08:00,
2013-03-17 11:13:00,31.1,21.5,30.13,WSW,253,0.0,3.3,67,0.00,,BKN250,0.00,VWS V14.00,2013-03-17 15:13:00,
2013-03-17 11:18:00,31.3,21.5,30.13,WSW,253,0.0,3.3,67,0.00,,BKN250,0.00,VWS V14.00,2013-03-17 15:18:00,
2013-03-17 11:24:00,31.2,20.7,30.13,ENE,69,0.0,6.8,65,0.00,,BKN250,0.00,VWS V14.00,2013-03-17 15:24:00,
2013-03-17 11:29:00,30.8,19.9,30.13,West,274,0.0,7.3,64,0.00,,BKN250,0.00,VWS V14.00,2013-03-17 15:29:00,
2013-03-17 11:34:00,31.1,21.4,30.13,NNE,21,0.0,5.5,67,0.00,,BKN250,0.00,VWS V14.00,2013-03-17 15:34:00,
2013-03-17 11:39:00,31.3,21.3,30.12,ENE,58,0.0,7.4,66,0.00,,BKN250,0.00,VWS V14.00,2013-03-17 15:39:00,
2013-03-17 11:44:00,31.3,21.1,30.12,WNW,285,0.0,9.1,66,0.00,,BKN250,0.00,VWS V14.00,2013-03-17 15:44:00,
2013-03-17 11:49:00,31.8,21.5,30.12,WNW,285,0.0,9.1,65,0.00,,BKN250,0.00,VWS V14.00,2013-03-17 15:49:00,
2013-03-17 11:54:00,32.0,21.3,30.12,WNW,285,0.0,0.0,64,0.00,,BKN250,0.00,VWS V14.00,2013-03-17 15:54:00,
2013-03-17 11:59:00,32.0,21.2,30.12,NW,319,0.0,9.3,64,0.00,,BKN250,0.00,VWS V14.00,2013-03-17 15:59:00,
2013-03-17 12:04:00,31.9,21.5,30.12,ENE,65,0.0,8.7,65,0.00,,OVC250,0.00,VWS V14.00,2013-03-17 16:04:00,
2013-03-17 12:09:00,32.0,20.7,30.12,ENE,65,0.0,8.7,63,0.00,,OVC250,0.00,VWS V14.00,2013-03-17 16:09:00,
2013-03-17 12:14:00,32.0,21.8,30.12,NNW,338,0.0,7.0,66,0.00,,OVC250,0.00,VWS V14.00,2013-03-17 16:14:00,
2013-03-17 12:19:00,32.2,22.1,30.11,NNW,338,0.0,7.0,66,0.00,,OVC250,0.00,VWS V14.00,2013-03-17 16:19:00,
2013-03-17 12:24:00,32.0,21.4,30.12,NW,318,0.0,9.9,64,0.00,,OVC250,0.00,VWS V14.00,2013-03-17 16:24:00,
2013-03-17 12:29:00,32.1,21.6,30.12,NW,325,0.0,9.9,65,0.00,,OVC250,0.00,VWS V14.00,2013-03-17 16:29:00,
2013-03-17 12:35:00,32.3,21.3,30.12,North,6,0.0,8.2,63,0.00,,OVC250,0.00,VWS V14.00,2013-03-17 16:35:00,
2013-03-17 12:40:00,32.4,21.0,30.12,North,6,0.0,8.2,62,0.00,,OVC250,0.00,VWS V14.00,2013-03-17 16:40:00,
2013-03-17 12:45:00,32.4,20.8,30.12,North,6,0.0,0.0,62,0.00,,OVC250,0.00,VWS V14.00,2013-03-17 16:45:00,
2013-03-17 12:50:00,32.8,22.4,30.12,North,6,0.0,0.0,65,0.00,,OVC250,0.00,VWS V14.00,2013-03-17 16:50:00,
2013-03-17 12:55:00,32.8,20.8,30.12,NNE,27,0.0,7.8,61,0.00,,OVC250,0.00,VWS V14.00,2013-03-17 16:55:00,
2013-03-17 13:00:00,32.9,21.1,30.13,NE,38,0.0,7.8,62,0.00,,OVC250,0.00,VWS V14.00,2013-03-17 17:00:00,
2013-03-17 13:05:00,33.3,23.0,30.13,NE,38,0.0,0.0,66,0.00,,OVC250,0.00,VWS V14.00,2013-03-17 17:05:00,
2013-03-17 13:10:00,33.5,21.7,30.12,NE,45,0.0,2.8,62,0.00,,OVC250,0.00,VWS V14.00,2013-03-17 17:10:00,
2013-03-17 13:15:00,33.6,22.0,30.13,NE,45,0.0,0.0,62,0.00,,OVC250,0.00,VWS V14.00,2013-03-17 17:15:00,
2013-03-17 13:20:00,33.6,21.1,30.13,NE,45,0.0,3.3,60,0.00,,OVC250,0.00,VWS V14.00,2013-03-17 17:20:00,
2013-03-17 13:25:00,33.7,22.9,30.13,West,262,0.0,7.5,64,0.00,,OVC250,0.00,VWS V14.00,2013-03-17 17:25:00,
2013-03-17 13:30:00,33.9,21.9,30.13,West,262,0.0,7.5,61,0.00,,OVC250,0.00,VWS V14.00,2013-03-17 17:30:00,
2013-03-17 13:35:00,34.0,21.5,30.13,North,349,0.0,5.7,60,0.00,,OVC250,0.00,VWS V14.00,2013-03-17 17:35:00,
2013-03-17 13:40:00,33.9,21.0,30.12,West,276,0.0,6.6,59,0.00,,OVC250,0.00,VWS V14.00,2013-03-17 17:40:00,
2013-03-17 13:45:00,34.2,21.3,30.13,WSW,256,0.0,6.7,59,0.00,,OVC250,0.00,VWS V14.00,2013-03-17 17:45:00,
2013-03-17 13:50:00,34.1,21.1,30.12,SW,233,0.0,7.6,59,0.00,,OVC250,0.00,VWS V14.00,2013-03-17 17:50:00,
2013-03-17 13:55:00,34.6,22.2,30.13,NW,308,4.2,4.2,60,0.00,,OVC250,0.00,VWS V14.00,2013-03-17 17:55:00,
2013-03-17 14:00:00,34.6,22.5,30.12,SSW,193,0.0,7.5,61,0.00,,OVC250,0.00,VWS V14.00,2013-03-17 18:00:00,
2013-03-17 14:06:00,34.9,20.5,30.12,North,3,0.0,8.4,55,0.00,,OVC250,0.00,VWS V14.00,2013-03-17 18:06:00,
2013-03-17 14:11:00,35.2,22.2,30.12,North,3,0.0,0.0,59,0.00,,OVC250,0.00,VWS V14.00,2013-03-17 18:11:00,
2013-03-17 14:16:00,35.5,22.5,30.12,NE,45,0.0,5.0,59,0.00,,OVC250,0.00,VWS V14.00,2013-03-17 18:16:00,
2013-03-17 14:21:00,35.5,21.7,30.13,NW,315,5.1,7.1,57,0.00,,OVC250,0.00,VWS V14.00,2013-03-17 18:21:00,
2013-03-17 14:26:00,35.3,20.5,30.12,North,1,4.7,8.9,54,0.00,,OVC250,0.00,VWS V14.00,2013-03-17 18:26:00,
2013-03-17 14:31:00,35.4,20.9,30.13,West,274,0.0,0.0,55,0.00,,OVC250,0.00,VWS V14.00,2013-03-17 18:31:00,
2013-03-17 14:36:00,35.4,21.9,30.13,WNW,301,0.0,4.2,57,0.00,,OVC250,0.00,VWS V14.00,2013-03-17 18:36:00,
2013-03-17 14:41:00,35.4,21.4,30.12,NNE,18,2.5,5.3,56,0.00,,OVC250,0.00,VWS V14.00,2013-03-17 18:41:00,
2013-03-17 14:47:00,35.6,21.0,30.12,WSW,252,0.0,7.5,55,0.00,,OVC250,0.00,VWS V14.00,2013-03-17 18:47:00,
2013-03-17 14:52:00,35.7,19.8,30.12,WSW,252,0.0,0.0,52,0.00,,OVC250,0.00,VWS V14.00,2013-03-17 18:52:00,
2013-03-17 14:57:00,35.9,21.1,30.12,NE,46,0.0,8.5,55,0.00,,OVC250,0.00,VWS V14.00,2013-03-17 18:57:00,
2013-03-17 15:02:00,35.7,20.4,30.12,NW,322,0.0,7.3,53,0.00,,OVC250,0.00,VWS V14.00,2013-03-17 19:02:00,
2013-03-17 15:07:00,35.8,19.2,30.12,North,11,0.0,7.3,50,0.00,,OVC250,0.00,VWS V14.00,2013-03-17 19:07:00,
2013-03-17 15:12:00,36.0,20.2,30.12,ENE,65,0.0,0.0,52,0.00,,OVC250,0.00,VWS V14.00,2013-03-17 19:12:00,
2013-03-17 15:17:00,36.2,19.9,30.12,WNW,294,0.0,4.9,51,0.00,,OVC250,0.00,VWS V14.00,2013-03-17 19:17:00,
2013-03-17 15:22:00,36.2,19.9,30.12,NNE,32,0.0,0.0,51,0.00,,OVC250,0.00,VWS V14.00,2013-03-17 19:22:00,
2013-03-17 15:27:00,36.4,19.7,30.12,NNE,32,0.0,0.0,50,0.00,,OVC250,0.00,VWS V14.00,2013-03-17 19:27:00,
2013-03-17 15:32:00,36.7,20.0,30.12,East,79,0.0,5.8,50,0.00,,OVC250,0.00,VWS V14.00,2013-03-17 19:32:00,
2013-03-17 15:37:00,36.9,18.8,30.12,East,79,0.0,5.8,48,0.00,,OVC250,0.00,VWS V14.00,2013-03-17 19:37:00,
2013-03-17 15:42:00,37.3,20.4,30.13,East,79,0.0,0.0,50,0.00,,OVC250,0.00,VWS V14.00,2013-03-17 19:42:00,
2013-03-17 15:47:00,37.4,18.0,30.12,East,79,0.0,0.0,45,0.00,,OVC250,0.00,VWS V14.00,2013-03-17 19:47:00,
2013-03-17 15:53:00,37.3,17.9,30.13,NE,37,0.0,4.9,45,0.00,,OVC250,0.00,VWS V14.00,2013-03-17 19:53:00,
2013-03-17 15:58:00,37.3,18.3,30.12,NE,37,0.0,4.9,46,0.00,,OVC250,0.00,VWS V14.00,2013-03-17 19:58:00,
2013-03-17 16:03:00,37.3,17.5,30.13,West,263,0.0,0.0,44,0.00,,OVC250,0.00,VWS V14.00,2013-03-17 20:03:00,
2013-03-17 16:08:00,37.4,17.7,30.13,NNE,14,0.0,7.5,44,0.00,,OVC250,0.00,VWS V14.00,2013-03-17 20:08:00,
2013-03-17 16:13:00,37.2,18.9,30.12,West,277,4.5,4.5,47,0.00,,OVC250,0.00,VWS V14.00,2013-03-17 20:13:00,
2013-03-17 16:18:00,37.1,17.4,30.13,NNW,338,0.0,6.0,44,0.00,,OVC250,0.00,VWS V14.00,2013-03-17 20:18:00,
2013-03-17 16:24:00,37.1,18.5,30.13,WNW,301,0.0,5.5,46,0.00,,OVC250,0.00,VWS V14.00,2013-03-17 20:24:00,
2013-03-17 16:29:00,37.2,17.7,30.13,North,11,0.0,6.0,45,0.00,,OVC250,0.00,VWS V14.00,2013-03-17 20:29:00,
2013-03-17 16:34:00,37.2,17.8,30.13,South,186,0.0,6.1,45,0.00,,OVC250,0.00,VWS V14.00,2013-03-17 20:34:00,
2013-03-17 16:39:00,37.1,16.9,30.13,SW,226,7.4,11.2,43,0.00,,OVC250,0.00,VWS V14.00,2013-03-17 20:39:00,
2013-03-17 16:44:00,36.9,16.1,30.13,West,267,0.0,8.8,42,0.00,,OVC250,0.00,VWS V14.00,2013-03-17 20:44:00,
2013-03-17 16:49:00,36.9,17.0,30.13,NW,307,0.0,8.8,44,0.00,,OVC250,0.00,VWS V14.00,2013-03-17 20:49:00,
2013-03-17 16:54:00,37.0,17.6,30.13,NW,318,0.0,6.8,45,0.00,,OVC250,0.00,VWS V14.00,2013-03-17 20:54:00,
2013-03-17 16:59:00,37.0,16.4,30.14,WNW,301,7.6,7.8,43,0.00,,OVC250,0.00,VWS V14.00,2013-03-17 20:59:00,
2013-03-17 17:04:00,36.6,15.8,30.14,West,264,0.0,11.9,42,0.00,,OVC250,0.00,VWS V14.00,2013-03-17 21:04:00,
2013-03-17 17:09:00,36.9,16.9,30.14,West,264,0.0,11.9,44,0.00,,OVC250,0.00,VWS V14.00,2013-03-17 21:09:00,
2013-03-17 17:14:00,37.2,18.5,30.14,West,264,0.0,0.0,46,0.00,,OVC250,0.00,VWS V14.00,2013-03-17 21:14:00,
2013-03-17 17:19:00,36.8,16.4,30.14,West,264,0.0,2.9,43,0.00,,OVC250,0.00,VWS V14.00,2013-03-17 21:19:00,
2013-03-17 17:24:00,37.0,17.8,30.15,West,264,0.0,0.0,45,0.00,,OVC250,0.00,VWS V14.00,2013-03-17 21:24:00,
2013-03-17 17:29:00,36.9,16.8,30.15,North,4,0.0,6.0,44,0.00,,OVC250,0.00,VWS V14.00,2013-03-17 21:29:00,
2013-03-17 17:34:00,36.8,17.4,30.15,North,4,0.0,0.0,45,0.00,,OVC250,0.00,VWS V14.00,2013-03-17 21:34:00,
2013-03-17 17:39:00,36.8,16.9,30.15,North,4,0.0,0.0,44,0.00,,OVC250,0.00,VWS V14.00,2013-03-17 21:39:00,
2013-03-17 17:44:00,36.7,15.9,30.15,West,260,0.0,3.2,42,0.00,,OVC250,0.00,VWS V14.00,2013-03-17 21:44:00,
2013-03-17 17:50:00,36.8,15.1,30.15,West,260,0.0,3.2,41,0.00,,OVC250,0.00,VWS V14.00,2013-03-17 21:50:00,
2013-03-17 17:55:00,36.5,14.0,30.16,North,356,0.0,9.6,39,0.00,,OVC250,0.00,VWS V14.00,2013-03-17 21:55:00,
2013-03-17 18:00:00,36.4,15.1,30.16,North,4,0.0,9.6,41,0.00,,OVC250,0.00,VWS V14.00,2013-03-17 22:00:00,
2013-03-17 18:05:00,36.5,16.2,30.16,North,4,0.0,0.0,43,0.00,,BKN220,0.00,VWS V14.00,2013-03-17 22:05:00,
2013-03-17 18:10:00,36.4,15.2,30.17,ESE,112,0.0,3.2,42,0.00,,BKN220,0.00,VWS V14.00,2013-03-17 22:10:00,
2013-03-17 18:15:00,36.3,14.6,30.17,ESE,112,0.0,3.1,41,0.00,,BKN220,0.00,VWS V14.00,2013-03-17 22:15:00,
2013-03-17 18:20:00,36.2,15.1,30.17,NNE,17,0.0,6.6,42,0.00,,BKN220,0.00,VWS V14.00,2013-03-17 22:20:00,
2013-03-17 18:25:00,36.1,15.1,30.18,NNE,17,0.0,0.0,42,0.00,,BKN220,0.00,VWS V14.00,2013-03-17 22:25:00,
2013-03-17 18:30:00,36.1,16.4,30.18,SW,228,0.0,4.7,44,0.00,,BKN220,0.00,VWS V14.00,2013-03-17 22:30:00,
2013-03-17 18:35:00,35.9,15.2,30.18,SW,228,0.0,0.0,42,0.00,,BKN220,0.00,VWS V14.00,2013-03-17 22:35:00,
2013-03-17 18:40:00,35.8,16.6,30.18,SW,228,0.0,0.0,45,0.00,,BKN220,0.00,VWS V14.00,2013-03-17 22:40:00,
2013-03-17 18:45:00,35.5,17.1,30.19,SW,228,0.0,0.0,47,0.00,,BKN220,0.00,VWS V14.00,2013-03-17 22:45:00,
2013-03-17 18:50:00,35.3,15.2,30.20,North,6,0.0,5.3,43,0.00,,BKN220,0.00,VWS V14.00,2013-03-17 22:50:00,
2013-03-17 18:55:00,35.3,17.6,30.20,North,6,0.0,0.0,48,0.00,,BKN220,0.00,VWS V14.00,2013-03-17 22:55:00,
2013-03-17 19:00:00,35.1,17.9,30.20,North,6,0.0,0.0,49,0.00,,BKN220,0.00,VWS V14.00,2013-03-17 23:00:00,
2013-03-17 19:05:00,34.7,17.4,30.20,North,6,0.0,0.0,49,0.00,,BKN210,0.00,VWS V14.00,2013-03-17 23:05:00,
2013-03-17 19:10:00,34.3,17.4,30.20,North,6,0.0,0.0,50,0.00,,BKN210,0.00,VWS V14.00,2013-03-17 23:10:00,
2013-03-17 19:15:00,34.0,17.8,30.21,North,6,0.0,0.0,51,0.00,,BKN210,0.00,VWS V14.00,2013-03-17 23:15:00,
2013-03-17 19:20:00,33.6,17.9,30.22,North,6,0.0,0.0,52,0.00,,BKN210,0.00,VWS V14.00,2013-03-17 23:20:00,
2013-03-17 19:25:00,33.3,18.2,30.21,North,6,0.0,0.0,53,0.00,,BKN210,0.00,VWS V14.00,2013-03-17 23:25:00,
2013-03-17 19:31:00,33.0,18.1,30.22,North,6,0.0,0.0,54,0.00,,BKN210,0.00,VWS V14.00,2013-03-17 23:31:00,
2013-03-17 19:36:00,32.7,17.6,30.22,North,6,0.0,0.0,53,0.00,,BKN210,0.00,VWS V14.00,2013-03-17 23:36:00,
2013-03-17 19:41:00,32.4,18.1,30.23,North,6,0.0,0.0,55,0.00,,BKN210,0.00,VWS V14.00,2013-03-17 23:41:00,
2013-03-17 19:46:00,32.1,19.2,30.23,North,6,0.0,0.0,58,0.00,,BKN210,0.00,VWS V14.00,2013-03-17 23:46:00,
2013-03-17 19:51:00,31.8,19.1,30.23,North,6,0.0,0.0,59,0.00,,BKN210,0.00,VWS V14.00,2013-03-17 23:51:00,
2013-03-17 19:56:00,31.5,18.8,30.23,North,6,0.0,0.0,59,0.00,,BKN210,0.00,VWS V14.00,2013-03-17 23:56:00,
2013-03-17 20:02:00,31.2,19.1,30.23,North,6,0.0,0.0,60,0.00,,BKN210,0.00,VWS V14.00,2013-03-18 00:02:00,
2013-03-17 20:07:00,31.0,19.4,30.24,North,6,0.0,0.0,62,0.00,,OVC220,0.00,VWS V14.00,2013-03-18 00:07:00,
2013-03-17 20:12:00,30.8,19.8,30.24,North,6,0.0,0.0,63,0.00,,OVC220,0.00,VWS V14.00,2013-03-18 00:12:00,
2013-03-17 20:17:00,30.6,19.6,30.24,North,6,0.0,0.0,63,0.00,,OVC220,0.00,VWS V14.00,2013-03-18 00:17:00,
2013-03-17 20:23:00,30.5,19.4,30.25,North,6,0.0,0.0,63,0.00,,OVC220,0.00,VWS V14.00,2013-03-18 00:23:00,
2013-03-17 20:28:00,30.3,19.6,30.25,North,6,0.0,0.0,64,0.00,,OVC220,0.00,VWS V14.00,2013-03-18 00:28:00,
2013-03-17 20:33:00,30.2,20.3,30.26,North,6,0.0,0.0,66,0.00,,OVC220,0.00,VWS V14.00,2013-03-18 00:33:00,
2013-03-17 20:38:00,30.0,20.0,30.26,North,6,0.0,0.0,66,0.00,,OVC220,0.00,VWS V14.00,2013-03-18 00:38:00,
2013-03-17 20:43:00,29.9,19.8,30.26,North,6,0.0,0.0,66,0.00,,OVC220,0.00,VWS V14.00,2013-03-18 00:43:00,
2013-03-17 20:48:00,29.7,19.5,30.26,North,6,0.0,0.0,65,0.00,,OVC220,0.00,VWS V14.00,2013-03-18 00:48:00,
2013-03-17 20:53:00,29.7,19.4,30.26,North,6,0.0,0.0,65,0.00,,OVC220,0.00,VWS V14.00,2013-03-18 00:53:00,
2013-03-17 20:58:00,29.7,19.1,30.26,North,6,0.0,0.0,64,0.00,,OVC220,0.00,VWS V14.00,2013-03-18 00:58:00,
2013-03-17 21:03:00,29.8,18.8,30.27,North,6,0.0,0.0,63,0.00,,OVC220,0.00,VWS V14.00,2013-03-18 01:03:00,
2013-03-17 21:08:00,29.9,19.4,30.27,North,6,0.0,0.0,64,0.00,,BKN250,0.00,VWS V14.00,2013-03-18 01:08:00,
2013-03-17 21:13:00,29.9,19.4,30.27,North,6,0.0,0.0,65,0.00,,BKN250,0.00,VWS V14.00,2013-03-18 01:13:00,
2013-03-17 21:18:00,29.8,19.2,30.27,North,6,0.0,0.0,64,0.00,,BKN250,0.00,VWS V14.00,2013-03-18 01:18:00,
2013-03-17 21:23:00,29.7,19.4,30.28,North,6,0.0,0.0,65,0.00,,BKN250,0.00,VWS V14.00,2013-03-18 01:23:00,
2013-03-17 21:28:00,29.6,19.3,30.28,North,6,0.0,0.0,65,0.00,,BKN250,0.00,VWS V14.00,2013-03-18 01:28:00,
2013-03-17 21:33:00,29.4,19.3,30.28,North,6,0.0,0.0,66,0.00,,BKN250,0.00,VWS V14.00,2013-03-18 01:33:00,
2013-03-17 21:38:00,29.3,19.3,30.28,North,6,0.0,0.0,66,0.00,,BKN250,0.00,VWS V14.00,2013-03-18 01:38:00,
2013-03-17 21:43:00,29.2,19.5,30.28,North,6,0.0,0.0,67,0.00,,BKN250,0.00,VWS V14.00,2013-03-18 01:43:00,
2013-03-17 21:48:00,29.1,19.6,30.28,North,6,0.0,0.0,67,0.00,,BKN250,0.00,VWS V14.00,2013-03-18 01:48:00,
2013-03-17 21:53:00,28.9,19.1,30.28,North,6,0.0,0.0,66,0.00,,BKN250,0.00,VWS V14.00,2013-03-18 01:53:00,
2013-03-17 21:58:00,28.8,18.6,30.29,North,6,0.0,0.0,65,0.00,,BKN250,0.00,VWS V14.00,2013-03-18 01:58:00,
2013-03-17 22:03:00,28.8,18.9,30.29,North,6,0.0,0.0,66,0.00,,BKN250,0.00,VWS V14.00,2013-03-18 02:03:00,
2013-03-17 22:09:00,28.7,19.6,30.30,North,6,0.0,0.0,68,0.00,,BKN250,0.00,VWS V14.00,2013-03-18 02:09:00,
2013-03-17 22:14:00,28.6,19.9,30.30,North,6,0.0,0.0,70,0.00,,BKN250,0.00,VWS V14.00,2013-03-18 02:14:00,
2013-03-17 22:19:00,28.5,18.5,30.30,North,6,0.0,0.0,66,0.00,,BKN250,0.00,VWS V14.00,2013-03-18 02:19:00,
2013-03-17 22:24:00,28.7,18.1,30.31,North,6,0.0,0.0,64,0.00,,BKN250,0.00,VWS V14.00,2013-03-18 02:24:00,
2013-03-17 22:29:00,28.9,17.8,30.31,North,6,0.0,0.0,63,0.00,,BKN250,0.00,VWS V14.00,2013-03-18 02:29:00,
2013-03-17 22:34:00,29.1,17.2,30.31,North,6,0.0,0.0,61,0.00,,BKN250,0.00,VWS V14.00,2013-03-18 02:34:00,
2013-03-17 22:39:00,29.1,17.4,30.32,North,6,0.0,0.0,61,0.00,,BKN250,0.00,VWS V14.00,2013-03-18 02:39:00,
2013-03-17 22:44:00,29.1,17.6,30.32,North,6,0.0,0.0,62,0.00,,BKN250,0.00,VWS V14.00,2013-03-18 02:44:00,
2013-03-17 22:49:00,28.9,17.2,30.32,North,6,0.0,0.0,61,0.00,,BKN250,0.00,VWS V14.00,2013-03-18 02:49:00,
2013-03-17 22:54:00,28.9,17.2,30.32,North,6,0.0,0.0,61,0.00,,BKN250,0.00,VWS V14.00,2013-03-18 02:54:00,
2013-03-17 22:59:00,28.8,17.6,30.32,North,6,0.0,0.0,62,0.00,,BKN250,0.00,VWS V14.00,2013-03-18 02:59:00,
2013-03-17 23:00:00,28.1,16.6,30.32,North,6,0.0,0.0,62,0.00,,BKN210,0.00,VWS V14.00,2013-03-18 03:00:00,
2013-03-17 23:01:00,28.1,17.3,30.32,North,6,0.0,0.0,64,0.00,,BKN210,0.00,VWS V14.00,2013-03-18 03:01:00,
2013-03-17 23:02:00,28.1,17.9,30.32,North,6,0.0,0.0,65,0.00,,BKN210,0.00,VWS V14.00,2013-03-18 03:02:00,
2013-03-17 23:03:00,28.1,17.7,30.32,North,6,0.0,0.0,65,0.00,,BKN220,0.00,VWS V14.00,2013-03-18 03:03:00,
2013-03-17 23:04:00,28.7,18.3,30.32,North,6,0.0,0.0,65,0.00,,BKN210,0.00,VWS V14.00,2013-03-18 03:04:00,
2013-03-17 23:05:00,28.0,17.6,30.32,North,6,0.0,0.0,65,0.00,,BKN220,0.00,VWS V14.00,2013-03-18 03:05:00,
2013-03-17 23:06:00,28.0,17.5,30.32,North,6,0.0,0.0,64,0.00,,BKN220,0.00,VWS V14.00,2013-03-18 03:06:00,
2013-03-17 23:07:00,27.9,17.4,30.32,North,6,0.0,0.0,64,0.00,,BKN220,0.00,VWS V14.00,2013-03-18 03:07:00,
2013-03-17 23:08:00,27.9,17.4,30.32,North,6,0.0,0.0,64,0.00,,BKN220,0.00,VWS V14.00,2013-03-18 03:08:00,
2013-03-17 23:09:00,28.5,17.1,30.32,North,6,0.0,0.0,62,0.00,,BKN210,0.00,VWS V14.00,2013-03-18 03:09:00,
2013-03-17 23:10:00,27.7,16.8,30.32,North,6,0.0,0.0,63,0.00,,BKN220,0.00,VWS V14.00,2013-03-18 03:10:00,
2013-03-17 23:11:00,27.7,17.0,30.33,North,6,0.0,0.0,64,0.00,,BKN220,0.00,VWS V14.00,2013-03-18 03:11:00,
2013-03-17 23:12:00,27.7,17.0,30.33,North,6,0.0,0.0,64,0.00,,BKN220,0.00,VWS V14.00,2013-03-18 03:12:00,
2013-03-17 23:13:00,27.7,16.8,30.32,North,6,0.0,0.0,63,0.00,,BKN220,0.00,VWS V14.00,2013-03-18 03:13:00,
2013-03-17 23:14:00,28.4,17.0,30.33,North,6,0.0,0.0,62,0.00,,BKN210,0.00,VWS V14.00,2013-03-18 03:14:00,
2013-03-17 23:15:00,27.6,16.7,30.32,North,6,0.0,0.0,63,0.00,,BKN220,0.00,VWS V14.00,2013-03-18 03:15:00,
2013-03-17 23:16:00,27.5,16.4,30.33,North,6,0.0,0.0,63,0.00,,BKN220,0.00,VWS V14.00,2013-03-18 03:16:00,
2013-03-17 23:17:00,27.5,16.3,30.32,North,6,0.0,0.0,62,0.00,,BKN220,0.00,VWS V14.00,2013-03-18 03:17:00,
2013-03-17 23:18:00,27.5,16.3,30.33,North,6,0.0,0.0,62,0.00,,BKN220,0.00,VWS V14.00,2013-03-18 03:18:00,
2013-03-17 23:19:00,28.4,17.0,30.32,North,6,0.0,0.0,62,0.00,,BKN210,0.00,VWS V14.00,2013-03-18 03:19:00,
2013-03-17 23:20:00,27.4,16.3,30.32,North,6,0.0,0.0,62,0.00,,BKN220,0.00,VWS V14.00,2013-03-18 03:20:00,
2013-03-17 23:24:00,28.4,17.3,30.32,North,6,0.0,0.0,63,0.00,,BKN210,0.00,VWS V14.00,2013-03-18 03:24:00,
2013-03-17 23:29:00,28.6,16.1,30.32,North,6,0.0,0.0,59,0.00,,BKN210,0.00,VWS V14.00,2013-03-18 03:29:00,
2013-03-17 23:34:00,28.7,16.1,30.32,North,6,0.0,0.0,59,0.00,,BKN210,0.00,VWS V14.00,2013-03-18 03:34:00,
2013-03-17 23:40:00,28.8,16.7,30.32,North,6,0.0,0.0,60,0.00,,BKN210,0.00,VWS V14.00,2013-03-18 03:40:00,
2013-03-17 23:45:00,28.7,18.0,30.32,North,6,0.0,0.0,64,0.00,,BKN210,0.00,VWS V14.00,2013-03-18 03:45:00,
2013-03-17 23:50:00,28.4,17.0,30.32,North,6,0.0,0.0,62,0.00,,BKN210,0.00,VWS V14.00,2013-03-18 03:50:00,
2013-03-17 23:55:00,28.2,16.6,30.32,North,6,0.0,0.0,61,0.00,,BKN210,0.00,VWS V14.00,2013-03-18 03:55:00,